HYLAS 2

Last updated on Wed Sep 17 2025 00:02:48 GMT+0000 (Coordinated Universal Time)

1 38741U 12043B 25259.56934529 -.00000276 00000+0 00000+0 0 9993 2 38741 1.7153 84.4516 0003044 134.5939 269.1405 1.00270672 48032
UTC large
Height (km)
Speed (km/s)
/
Latitude / Longitude
Inclination (degrees)
Orbital Period (minutes)
Azimuth
Elevation
Range (km)
Doppler Factor

Next 0 passes for location: London (51.5072 / 0.1276)

Sorry there are no passes over London.